AirNav   Air Wisconsin Up To $57,000 Bonus
 
 1553 users online  

95GA McIntosh Field Airport
Whitesburg, Georgia, USA

GOING TO WHITESBURG?


FAA INFORMATION EFFECTIVE 31 DECEMBER 2020

Location

FAA Identifier: 95GA
Lat/Long: 33-27-21.4090N 084-56-34.7830W
33-27.356817N 084-56.579717W
33.4559469,-84.9429953
(estimated)
Elevation: 771 ft. / 235.0 m (surveyed)
Variation: 02W (1990)
From city: 3 miles SW of WHITESBURG, GA
Time zone: UTC -5 (UTC -4 during Daylight Saving Time)
Zip code: 30185

Airport Operations

Airport use: Private use. Permission required prior to landing
Activation date: 04/1993
Control tower: no
ARTCC: ATLANTA CENTER
FSS: MACON FLIGHT SERVICE STATION
Attendance: IREG
Wind indicator: yes
Segmented circle: no

Airport Communications

WX AWOS-3PT at CCO (12 nm SE): 118.975 (770-254-1617)
WX AWOS-3 at CTJ (15 nm NW): 118.175 (770-214-9667)
WX ASOS at FFC (19 nm E): 118.525 (770-487-1610)

Nearby radio navigation aids

VOR radial/distance  VOR name  Freq  Var
ATLr253/27.4ATLANTA VORTAC116.9005W
LGCr027/27.8LAGRANGE VORTAC115.6001E

 
NDB name  Hdg/Dist  Freq  Var  ID
CARROLLTON129/11.527804WGPQ --. .--. --.-
COWETA COUNTY319/16.623403WEQQ . --.- --.-
PECAT297/24.731605WFFC ..-. ..-. -.-.
PINE MOUNTAIN358/37.027203WPIM .--. .. --

Airport Services

Runway Information

Runway 4/22

Dimensions: 2480 x 50 ft. / 756 x 15 m
Surface: turf, in good condition
RUNWAY 4  RUNWAY 22
Traffic pattern: leftleft

Airport Ownership and Management from official FAA records

Ownership: Privately-owned
Owner: W. K. ZEIS, JR & D. M. GREENE
1656 N HIGHWAY 27
CARROLLTON, GA 30117-7506
Phone 770-834-4219
Manager: W. K. ZEIS, JR & D. M. GREENE
1656 N HIGHWAY 27
CARROLLTON, GA 30117-7506
Phone 770-834-4219

Additional Remarks

A52-04 04/22 TREES IN ALL QUADRANTS; HILLS ALONG EACH SIDE OF RY.
EXTENSIVE DEER ON AND INVOF ARPT.
POND WITH GEESE ADJACENT TO RW
REMOTE CONTROL AIRCRAFT PARK 1 MILE SW
FOR CD CTC ATLANTA APCH AT 678-364-6131.

Instrument Procedures

There are no published instrument procedures at 95GA.

Some nearby airports with instrument procedures:

KCCO - Newnan Coweta County Airport (12 nm SE)
KCTJ - West Georgia Regional Airport-O V Gray Field (15 nm NW)
KFFC - Atlanta Regional Airport-Falcon Field (19 nm E)
KPUJ - Paulding Northwest Atlanta Airport (27 nm N)
KLGC - LaGrange-Callaway Airport (28 nm S)
 
Loc | Ops | Rwys | IFR | FBO | Links
Com | Nav | Svcs | Stats | Notes
Area around 95GA (McIntosh Field Airport)
 
Road maps at: MapQuest Bing Google
 
Aerial photo
No photo
 
Sectional chart

 
Airport distance calculator
Flying to McIntosh Field Airport? Find the distance to fly.

From to 95GA

Sunrise and sunset
Times for 26-Jan-2021
 Local
(UTC-5)
 Zulu
(UTC)
Morning civil twilight07:1412:14
Sunrise07:4112:41
Sunset18:0423:04
Evening civil twilight18:3123:31

Current date and time
Zulu (UTC)  26-Jan-2021 17:47:37
Local (UTC-5)  26-Jan-2021 12:47:37
 
METAR
KCCO 
12nm SE 
261735Z AUTO 30003KT 10SM SCT020 SCT065 OVC085 20/13 A2994 RMK AO2 LTG DSNT SW T01950134
KCTJ 
15nm NW 
261735Z AUTO 00000KT 10SM BKN100 18/11 A2996 RMK AO2 LTG DSNT SW T01750107
KFFC 
20nm E 
261653Z AUTO 30008KT 10SM SCT065 OVC090 19/14 A2995 RMK AO2 SLP137 T01890139
TAF
KATL 
27nm NE 
261530Z 2616/2718 27008KT P6SM SCT015 SCT060 BKN120 FM270000 29004KT P6SM BKN100 FM270800 01005KT 6SM -SHRA OVC050 FM271200 05006KT 6SM -SHRA SCT010 OVC030 FM271500 06007KT P6SM -SHRA BKN008 OVC015
KFTY 
29nm NE 
261133Z 2612/2712 24005KT P6SM VCSH SCT025 BKN035 FM261400 26006KT P6SM SCT025 BKN040 FM261600 28007KT P6SM SCT050 SCT120 FM262200 28005KT P6SM BKN120 FM270600 00000KT P6SM VCSH BKN040 FM270800 00000KT 6SM SHRA BR OVC050 FM271000 02004KT 5SM SHRA BR SCT025 OVC050
NOTAMs
Click for the latest NOTAMs
NOTAMs are issued by the DoD/FAA and will open in a separate window not controlled by AirNav.

 

 
 

Would you like to see your business listed on this page?

 If your business provides an interesting product or service to pilots, flight crews, aircraft, or users of the McIntosh Field Airport, you should consider listing it here.  To start the listing process, click on the button below
 
Add a business
 

Other Pages about McIntosh Field Airport

Update a link
 
Copyright © AirNav, LLC. All rights reserved. Privacy Policy  Contact